Home > Weather > Kuching > Past weeks

Flag for Malaysia Weather for the Past 2 Weeks in Kuching, Malaysia

Now
88 °F

Broken clouds.


Feels Like: 100 °F
Forecast: 78 / 92 °F
Wind: 3 mph from Northeast

Location: Kuching Airport

Current Time: May 6, 2016 at 5:18:50 PM

Latest Report: May 6, 2016 at 4:30 PM


Visibility: N/A

Pressure: 29.71 "Hg

Humidity: 70%

Dew Point: 77 °F

Location of KuchingLocation

Historic Weather in Kuching — Graph

°F

Kuching Temperature Yesterday

Maximum temperature yesterday: 91 °F (at 11:30 AM)
Minimum temperature yesterday: 77 °F (at 10:30 PM)
Average temperature yesterday: 82 °F

High & Low Weather Summary for the Past Weeks

 TemperatureHumidityPressure
High95 °F (Apr 22, 3:00 PM)100% (Apr 21, 11:30 PM)29.89 "Hg (Apr 21, 11:30 PM)
Low75 °F (Apr 22, 7:00 AM)56% (Apr 22, 3:00 PM)29.68 "Hg (Apr 24, 4:00 PM)
Average82 °F87%29.80 "Hg
* Reported Apr 21 4:00 PM — May 6 4:00 PM, Kuching, Weather by CustomWeather, © 2016

Note: Actual official high and low records may vary slightly from our data, if they occured in-between our weather recording intervals... More about our weather records

Advertising

Kuching Weather History for the Previous 24 Hours

Scroll right to see more
 ConditionsComfort  
Time TempWeatherWind HumidityBarometerVisibility
4:00 PM
Fri, May 6
90 °FBroken clouds.2 mph71%29.74 "HgN/A
3:30 PM90 °FBroken clouds.5 mph67%29.74 "HgN/A
3:00 PM90 °FBroken clouds.6 mph67%29.74 "HgN/A
2:30 PM90 °FBroken clouds.5 mph67%29.74 "HgN/A
2:00 PM91 °FBroken clouds.6 mph63%29.77 "HgN/A
1:30 PM91 °FBroken clouds.3 mph63%29.80 "HgN/A
1:00 PM91 °FBroken clouds.3 mph63%29.80 "HgN/A
12:30 PM91 °FBroken clouds.3 mph63%29.83 "HgN/A
12:00 PM90 °FBroken clouds.3 mph71%29.83 "HgN/A
11:30 AM88 °FBroken clouds.3 mph75%29.83 "HgN/A
11:00 AM86 °FBroken clouds.5 mph79%29.86 "HgN/A
10:30 AM84 °FPartly sunny.3 mph84%29.86 "HgN/A
10:00 AM82 °FPartly sunny.5 mph84%29.86 "HgN/A
9:30 AM82 °FPartly sunny.3 mph84%29.86 "HgN/A
9:00 AM81 °FPartly sunny.2 mph89%29.86 "HgN/A
8:30 AM79 °FPartly sunny.2 mph94%29.83 "HgN/A
8:00 AM77 °FPartly sunny.3 mph94%29.83 "Hg5 mi
7:30 AM77 °FBroken clouds.5 mph94%29.83 "Hg4 mi
7:00 AM75 °FFog.5 mph100%29.80 "Hg1 mi
6:30 AM75 °FFog.No wind100%29.80 "Hg0 mi
6:00 AM75 °FFog.3 mph100%29.77 "Hg1 mi
5:30 AM75 °FFog.2 mph100%29.77 "Hg1 mi
5:00 AM77 °FPartly cloudy.2 mph94%29.77 "Hg4 mi
4:30 AM77 °FPartly cloudy.2 mph94%29.77 "Hg4 mi
4:00 AM77 °FPartly cloudy.1 mph94%29.77 "HgN/A
3:30 AM77 °FPartly cloudy.No wind94%29.77 "HgN/A
3:00 AM77 °FPartly cloudy.1 mph100%29.77 "HgN/A
2:30 AM77 °FPartly cloudy.2 mph100%29.77 "HgN/A
2:00 AM77 °FPartly cloudy.No wind100%29.80 "HgN/A
1:30 AM77 °FPartly cloudy.No wind94%29.80 "HgN/A
1:00 AM77 °FPartly cloudy.2 mph100%29.80 "HgN/A
12:30 AM77 °FPartly cloudy.5 mph100%29.83 "HgN/A
12:00 AM77 °FLight rain. Partly cloudy.2 mph100%29.83 "HgN/A
11:30 PM
Thu, May 5
77 °FLight rain. Partly cloudy.2 mph100%29.83 "Hg4 mi
11:00 PM77 °FLight rain. Partly cloudy.3 mph100%29.83 "Hg4 mi
10:30 PM77 °FLight rain. Partly cloudy.2 mph100%29.83 "Hg4 mi
10:00 PM79 °FLight rain. Partly cloudy.2 mph94%29.80 "Hg5 mi
9:30 PM79 °FLight rain. Partly cloudy.3 mph94%29.80 "Hg5 mi
9:00 PM79 °FLight rain. Partly cloudy.5 mph94%29.80 "Hg5 mi
8:30 PM79 °FThunderstorms. Partly cloudy.3 mph94%29.80 "Hg5 mi
8:00 PM79 °FThunderstorms. Partly cloudy.3 mph94%29.80 "Hg5 mi
7:30 PM79 °FThunderstorms. Partly cloudy.2 mph94%29.77 "Hg5 mi
7:00 PM79 °FThunderstorms. Partly cloudy.3 mph94%29.77 "HgN/A
6:30 PM81 °FBroken clouds.6 mph89%29.77 "HgN/A
6:00 PM81 °FBroken clouds.6 mph89%29.77 "HgN/A
5:30 PM81 °FBroken clouds.8 mph89%29.77 "HgN/A
5:00 PM81 °FLight rain. Broken clouds.9 mph89%29.74 "HgN/A
Weather by CustomWeather, © 2016

See weather overviewHow to use our weather pages